sat.trackr.live / text

‹ back to catalog

TIANHUI 2-01B

NORAD 44209 · 2019-024C

PAYLOAD ACTIVE UNKNOWN

§ Identity

Operator
Country
PRC
Launch date
2019-04-29
Launch site
TAISC
Launch vehicle
Mass (kg)
RCS (m²)

External: N2YO · Heavens-Above · Gunter

§ Orbital elements

Epoch: 2026-09-19T13:35:17.527776Z

Period
94.94 min
Inclination
97.4851°
Eccentricity
0.0002017
Mean motion
15.16759906 rev/d
Perigee alt
514.3 km
Apogee alt
517.0 km
Semi-major
6,893.8 km
B*
5.9427e-5
RAAN
265.2662°
Arg perigee
91.7185°
Mean anomaly
268.4279°
Rev number
40,901

§ Raw data

TIANHUI 2-01B1 44209U 19024C   26262.56617509  .00001099  00000+0  59427-4 0  99912 44209  97.4851 265.2662 0002017  91.7185 268.4279 15.16759906409016

JSON: /api/v1/satellites/44209 · /tle

For live sub-satellite position, see the globe view (requires WebGL).

§ Visibility from observer

Set your observer location to see the next 7 days of passes ≥ 10°. The values pass through the URL so the page stays shareable.

No JS? Fill the form by hand. The geolocation button needs JavaScript.